Regional Weather Roundup
Issued by NWS

Home | Current Version | Previous Version | Text Only | Print | Product List | Glossary Off
Versions: 1 2 3 4 5 6 7 8 9 10 11 12 13 14 15 16 17 18 19 20 21 22 23 24 25 26 27 28 29 30 31 32 33 34 35 36 37 38 39 40 41 42 43 44 45 46 47 48 49 50

000
ASUS43 KMKX 220411
RWRWI

WISCONSIN REGIONAL WEATHER ROUNDUP
NATIONAL WEATHER SERVICE MILWAUKEE/SULLIVAN WI
1100 PM CDT WED JUN 21 2017

NOTE: "FAIR" INDICATES FEW OR NO CLOUDS BELOW 12,000 FEET WITH NO
SIGNIFICANT WEATHER AND/OR OBSTRUCTIONS TO VISIBILITY.

WIZ001-002-006>008-014>016-023>028-220500-
NORTHWEST WISCONSIN

CITY           SKY/WX    TMP DP  RH WIND       PRES   REMARKS
SUPERIOR ARPT  NOT AVBL
ASHLAND        MOCLDY    57  52  83 CALM      29.73F
HAYWARD        CLOUDY    68  55  63 S9        29.74F
SIREN          LGT RAIN  70  56  61 S12       29.74F
CUMBERLAND     CLOUDY    64  54  68 CALM      29.78S
RICE LAKE      CLOUDY    70  55  58 S7        29.78F
CHETEK         CLOUDY    67  57  70 S5        29.77F
LADYSMITH      CLOUDY    67  55  66 SE5       29.80S
EAU CLAIRE     CLOUDY    71  56  58 S12       29.75F
MENOMONIE      PTCLDY    69  57  64 SE9       29.76F
NEW RICHMOND   CLOUDY    69  57  66 SE5       29.76S
OSCEOLA        MOCLDY    70  59  67 SE5       29.78S
$$

WIZ003>005-009-010-017-018-220500-
NORTH CENTRAL WISCONSIN

CITY           SKY/WX    TMP DP  RH WIND       PRES   REMARKS
MANITOWISH WTR MOCLDY    64  56  73 S8        29.79F
ARBOR VITAE    CLOUDY    66  55  67 S8        29.79F
WOODRUFF       CLOUDY    66  55  67 S8        29.79F
RHINELANDER    PTCLDY    62  55  77 SE5       29.83F
EAGLE RIVER    PTCLDY    62  51  66 S6        29.81F
LAND O LAKES   PTCLDY    63  53  70 S5        29.82F
PHILLIPS       CLOUDY    64  56  73 S10       29.78F
TOMAHAWK       NOT AVBL
MEDFORD        CLOUDY    64  55  73 S8        29.81F
MERRILL        PTCLDY    64  56  75 S3        29.83S
$$

WIZ029-030-035-036-043>047-220500-
CENTRAL WISCONSIN

CITY           SKY/WX    TMP DP  RH WIND       PRES   REMARKS
WAUSAU         MOCLDY    66  55  67 S9        29.81F
MOSINEE        CLOUDY    64  55  72 SE6       29.84F
MARSHFIELD     MOCLDY    66  55  67 SE6       29.81F
STEVENS POINT  CLOUDY    65  55  69 CALM      29.84F
WAUPACA        MOCLDY    69  57  65 SE9       29.84F
WAUTOMA        CLOUDY    68  58  70 SE8       29.84F
WISC RAPIDS    MOCLDY    68  57  68 S5        29.82F
CAMP DOUGLAS   CLOUDY    68  57  68 CALM      29.80F
$$

WIZ011>013-019>022-031-037>040-048>050-220500-
NORTHEAST WISCONSIN

CITY           SKY/WX    TMP DP  RH WIND       PRES   REMARKS
ANTIGO         CLEAR     60  56  84 S7        29.85S
SHAWANO        CLEAR     66  56  72 SE5       29.84F
OCONTO         CLEAR     65  52  62 S6        29.85F
STURGEON BAY     N/A     61  50  67 S10         N/A
GREEN BAY      CLEAR     65  51  60 S9        29.86F
MANITOWOC      PTCLDY    63  49  60 S9        29.89F
APPLETON       MOCLDY    68  54  60 S10       29.85F
CLINTONVILLE   PTCLDY    63  55  77 S6        29.84F
OSHKOSH        MOCLDY    66  52  60 S7        29.85F
$$

WIZ032>034-041-042-053>061-220500-
SOUTHWEST WISCONSIN

CITY           SKY/WX    TMP DP  RH WIND       PRES   REMARKS
LA CROSSE      MOCLDY    73  60  63 SE9       29.77F
SPARTA         CLOUDY    70  57  64 CALM      29.81F
VIROQUA        PTCLDY    67  60  77 SE10      29.81F
BOSCOBEL       CLOUDY    71  62  73 CALM      29.80F
PRAIRIE DU CHI CLOUDY    71  61  72 E5        29.79F
PLATTEVILLE    CLEAR     70  65  85 SE12      29.82F
$$

WIZ056-057-062-063-064-067-068-220500-
SOUTH CENTRAL WISCONSIN

CITY           SKY/WX    TMP DP  RH WIND       PRES   REMARKS
REEDSBURG      CLOUDY    68  59  73 CALM      29.82F
BARABOO/DELLS  CLOUDY    69  57  65 S9        29.82F
LONE ROCK      CLOUDY    69  61  75 E7        29.81F
MINERAL POINT  CLOUDY    70  64  83 SE8       29.84F
MADISON        CLOUDY    69  59  70 E6        29.85F
MIDDLETON      CLOUDY    70  58  66 SE6       29.85F
WATERTOWN      MOCLDY    64  56  76 SE8       29.86F
MONROE         MOCLDY    68  61  77 SE6       29.85F
JANESVILLE     CLOUDY    70  59  68 E7        29.85F
$$

WIZ051-052-058>065-066-070>072-220500-
SOUTHEAST WISCONSIN

CITY           SKY/WX    TMP DP  RH WIND       PRES   REMARKS
MILWAUKEE      MOCLDY    66  54  65 S5        29.89F
WAUKESHA       CLOUDY    61  52  72 SE6       29.90F
MILWAUKEE/TIMM PTCLDY    64  50  59 SE3       29.90F
RACINE         PTCLDY    65  57  75 S6        29.91F
KENOSHA        PTCLDY    65  58  78 SE6       29.90F
FOND DU LAC    CLOUDY    67  49  52 S9        29.87F
SHEBOYGAN      CLOUDY    63  54  72 SE5       29.89F
WEST BEND      CLOUDY    63  52  67 CALM      29.89F
JUNEAU         CLOUDY    65  52  62 SE9       29.87F
$$

LSZ147-162-220500-
LAKE SUPERIOR

STATION/POSITION TIME  TEMP    WIND        PRES    WAVE
                       AIR SEA DIR/SP/G            HT/PER
                 (UTC) (F)     (DEG/KT/KT) (MB)    (FT/S)
W MID LAKE BUOY  0350   45 39   90/ 10/ 12 1007.3F   0
DEVILS ISLAND    0400   53      30/  8/  9 1007.2S
PORT WING        0200   64     120/  8/ 21 1007.1
SAXON HARBOR     0330   60     200/  2/  2 1006.8F
$$

LMZ867-665-643>646-220500-
LAKE MICHIGAN

STATION/POSITION TIME  TEMP    WIND        PRES    WAVE
                       AIR SEA DIR/SP/G            HT/PER
                 (UTC) (F)     (DEG/KT/KT) (MB)    (FT/S)
CHAMBERS ISLAND  0340   65     150/  6/ 13 1010.8F
N MID LAKE BUOY  0350   58 56  190/  8/ 10 1012.8F   1/ 3
NORTHPORT PIER   0340   63     160/  5/ 13 1011.9F
KEWAUNEE LAKESHO 0348   56     170/  8/  9 1011.7F
SHEBOYGAN LAKESH 0400   62     180/ 12/ 12 1011.9F
PORT WASHINGTON  0330   59     190/  4/  5 1013.5F
ATWATER BUOY     0309   60 54  170/  6/  8 1012.8F
MILWAUKEE LAKESH 0350   61     150/  2/  2   N/A
S MID LAKE BUOY  0350   64 61   90/  8/  8 1012.6F   0
KENOSHA   LAKESH 0400   63     160/  3/  4 1012.2
$$

TC  - TEMPERATURE IN CELSIUS
VSB - VISIBILITY IN STATUTE MILES
WCI - WIND CHILL INDEX
HX  - HEAT INDEX





USA.gov is the U.S. government's official web portal to all federal, state and local government web resources and services.